TimeCST,TemperatureF,Dew PointF,Humidity,Sea Level PressureIn,VisibilityMPH,Wind Direction,Wind SpeedMPH,Gust SpeedMPH,PrecipitationIn,Events,Conditions,WindDirDegrees,DateUTC
12:15 AM,49.6,45.7,86,30.02,10.0,SSE,13.8,-,N/A,,Overcast,160,2013-01-28 06:15:00
12:35 AM,49.1,45.5,87,30.02,10.0,South,11.5,-,N/A,,Mostly Cloudy,170,2013-01-28 06:35:00
12:55 AM,48.7,45.1,87,30.02,10.0,South,11.5,-,N/A,,Overcast,170,2013-01-28 06:55:00
1:15 AM,48.4,44.8,87,30.02,10.0,South,10.4,-,N/A,,Overcast,170,2013-01-28 07:15:00
1:35 AM,48.2,44.8,88,30.02,7.0,South,8.1,-,N/A,,Overcast,170,2013-01-28 07:35:00
1:55 AM,48.9,45.7,89,30.01,10.0,SSE,10.4,-,N/A,,Overcast,160,2013-01-28 07:55:00
2:15 AM,49.6,46.0,87,30.00,10.0,SSE,10.4,-,N/A,,Light Drizzle,160,2013-01-28 08:15:00
2:35 AM,50.0,46.4,87,30.00,10.0,SSE,13.8,18.4,N/A,,Overcast,160,2013-01-28 08:35:00
2:55 AM,50.0,46.4,87,29.99,10.0,South,12.7,-,N/A,,Overcast,170,2013-01-28 08:55:00
3:15 AM,50.9,47.3,87,29.99,10.0,South,13.8,-,N/A,,Overcast,170,2013-01-28 09:15:00
3:35 AM,52.7,48.4,85,29.99,10.0,South,11.5,19.6,N/A,,Overcast,180,2013-01-28 09:35:00
3:55 AM,53.1,48.7,85,29.99,10.0,South,12.7,18.4,N/A,,Overcast,190,2013-01-28 09:55:00
4:15 AM,53.6,49.3,85,29.99,10.0,SSW,12.7,-,N/A,,Overcast,200,2013-01-28 10:15:00
4:35 AM,53.8,49.5,85,29.99,10.0,South,11.5,-,N/A,,Overcast,190,2013-01-28 10:35:00
4:55 AM,53.8,49.6,86,29.99,10.0,South,12.7,-,N/A,,Overcast,190,2013-01-28 10:55:00
5:15 AM,54.1,50.0,86,29.99,10.0,South,15.0,19.6,N/A,,Overcast,190,2013-01-28 11:15:00
5:35 AM,54.5,50.2,85,29.99,10.0,South,13.8,20.7,N/A,,Overcast,190,2013-01-28 11:35:00
5:55 AM,54.7,50.7,86,30.00,10.0,South,15.0,-,N/A,,Overcast,190,2013-01-28 11:55:00
6:15 AM,54.9,50.9,86,29.99,10.0,South,16.1,20.7,N/A,,Overcast,180,2013-01-28 12:15:00
6:35 AM,54.7,50.9,87,30.00,7.0,South,16.1,-,N/A,,Overcast,190,2013-01-28 12:35:00
6:55 AM,55.2,51.4,87,29.99,7.0,South,19.6,-,N/A,,Overcast,190,2013-01-28 12:55:00
7:15 AM,54.9,51.3,88,29.99,7.0,South,17.3,-,N/A,,Overcast,180,2013-01-28 13:15:00
7:35 AM,55.4,51.8,88,29.99,7.0,South,18.4,24.2,N/A,,Overcast,180,2013-01-28 13:35:00
7:55 AM,55.9,52.2,87,30.00,7.0,South,19.6,24.2,N/A,Thunderstorm,Thunderstorm,180,2013-01-28 13:55:00
8:15 AM,55.6,52.9,91,30.01,2.5,SSW,11.5,24.2,0.03,Rain-Thunderstorm,Thunderstorms and Rain,200,2013-01-28 14:15:00
8:35 AM,55.6,52.9,91,30.01,4.0,South,11.5,16.1,0.05,Rain,Rain,180,2013-01-28 14:35:00
8:55 AM,55.8,53.2,91,30.02,4.0,SW,10.4,-,0.07,Rain,Light Rain,220,2013-01-28 14:55:00
9:15 AM,55.6,53.1,91,30.01,4.0,South,12.7,-,0.02,Rain,Rain,190,2013-01-28 15:15:00
9:35 AM,55.4,52.9,91,30.02,4.0,South,11.5,-,0.06,,Overcast,190,2013-01-28 15:35:00
9:55 AM,55.6,53.2,92,30.02,4.0,South,12.7,-,0.06,,Overcast,180,2013-01-28 15:55:00
10:15 AM,56.3,53.8,91,30.03,4.0,South,12.7,-,N/A,,Overcast,180,2013-01-28 16:15:00
10:35 AM,56.3,54.0,92,30.03,5.0,South,11.5,-,N/A,,Overcast,180,2013-01-28 16:35:00
10:55 AM,55.4,53.6,94,30.03,5.0,South,9.2,-,N/A,,Overcast,180,2013-01-28 16:55:00
11:15 AM,56.3,53.8,91,30.02,5.0,South,8.1,-,N/A,,Overcast,180,2013-01-28 17:15:00
11:35 AM,56.8,54.5,92,30.01,5.0,South,9.2,-,N/A,,Overcast,180,2013-01-28 17:35:00
11:55 AM,57.6,55.0,91,30.00,5.0,South,10.4,-,N/A,,Overcast,170,2013-01-28 17:55:00
12:15 PM,57.4,54.7,91,30.00,7.0,South,8.1,-,N/A,,Overcast,180,2013-01-28 18:15:00
12:35 PM,57.6,55.0,91,29.98,7.0,South,10.4,-,N/A,,Overcast,180,2013-01-28 18:35:00
12:55 PM,57.4,54.7,91,29.97,5.0,South,13.8,-,N/A,,Overcast,180,2013-01-28 18:55:00
1:15 PM,57.4,55.0,92,29.97,4.0,South,11.5,-,N/A,,Overcast,180,2013-01-28 19:15:00
1:35 PM,58.1,55.8,92,29.97,4.0,South,13.8,-,N/A,,Overcast,170,2013-01-28 19:35:00
1:55 PM,59.0,56.5,91,29.96,3.0,South,16.1,-,N/A,,Overcast,170,2013-01-28 19:55:00
2:15 PM,59.0,56.7,92,29.96,3.0,South,13.8,-,N/A,,Overcast,170,2013-01-28 20:15:00
2:35 PM,59.4,57.2,93,29.96,4.0,South,15.0,20.7,N/A,,Overcast,170,2013-01-28 20:35:00
2:55 PM,59.9,57.2,91,29.96,5.0,South,13.8,18.4,N/A,,Overcast,170,2013-01-28 20:55:00
3:15 PM,60.4,57.6,90,29.96,5.0,South,10.4,-,N/A,,Overcast,170,2013-01-28 21:15:00
3:35 PM,60.3,57.4,90,29.95,5.0,South,13.8,17.3,N/A,,Overcast,170,2013-01-28 21:35:00
3:55 PM,60.6,57.6,90,29.95,5.0,South,13.8,20.7,N/A,,Overcast,170,2013-01-28 21:55:00
4:15 PM,60.4,57.4,90,29.95,5.0,SSE,13.8,-,N/A,,Overcast,160,2013-01-28 22:15:00
4:35 PM,60.1,57.2,90,29.95,4.0,South,15.0,19.6,N/A,,Overcast,170,2013-01-28 22:35:00
4:55 PM,60.4,57.6,90,29.95,4.0,South,18.4,23.0,N/A,,Overcast,170,2013-01-28 22:55:00
5:15 PM,60.4,57.6,90,29.95,4.0,South,17.3,24.2,N/A,,Overcast,170,2013-01-28 23:15:00
5:35 PM,60.4,57.4,90,29.95,5.0,South,19.6,26.5,N/A,,Overcast,170,2013-01-28 23:35:00
5:55 PM,60.3,57.4,90,29.95,5.0,South,16.1,23.0,N/A,,Overcast,170,2013-01-28 23:55:00
6:15 PM,60.3,57.4,90,29.95,5.0,South,15.0,23.0,N/A,,Overcast,170,2013-01-29 00:15:00
6:35 PM,60.6,57.6,90,29.96,5.0,South,16.1,21.9,N/A,,Overcast,170,2013-01-29 00:35:00
6:55 PM,59.9,57.2,91,29.96,5.0,SSE,13.8,-,N/A,,Overcast,160,2013-01-29 00:55:00
7:15 PM,59.9,57.2,91,29.96,5.0,South,15.0,-,N/A,,Overcast,170,2013-01-29 01:15:00
7:35 PM,60.8,57.6,89,29.96,7.0,South,15.0,-,N/A,,Overcast,170,2013-01-29 01:35:00
7:55 PM,61.0,57.7,89,29.96,7.0,South,15.0,-,N/A,,Overcast,170,2013-01-29 01:55:00
8:15 PM,61.5,57.9,88,29.95,7.0,South,16.1,21.9,N/A,,Overcast,170,2013-01-29 02:15:00
8:35 PM,61.9,58.1,87,29.95,7.0,South,17.3,23.0,N/A,,Overcast,180,2013-01-29 02:35:00
8:55 PM,61.7,58.1,88,29.95,7.0,South,16.1,-,N/A,,Scattered Clouds,170,2013-01-29 02:55:00
9:15 PM,61.3,58.1,89,29.95,7.0,South,15.0,21.9,N/A,,Clear,180,2013-01-29 03:15:00
9:35 PM,60.6,57.2,88,29.95,7.0,South,12.7,-,N/A,,Clear,170,2013-01-29 03:35:00
9:55 PM,59.9,57.2,91,29.95,7.0,South,11.5,-,N/A,,Clear,170,2013-01-29 03:55:00
10:15 PM,59.4,56.7,91,29.95,7.0,South,11.5,-,N/A,,Clear,170,2013-01-29 04:15:00
10:35 PM,59.0,56.3,91,29.95,7.0,South,12.7,-,N/A,,Clear,170,2013-01-29 04:35:00
10:55 PM,58.6,55.9,91,29.95,7.0,South,12.7,-,N/A,,Clear,170,2013-01-29 04:55:00
11:15 PM,58.3,55.6,91,29.95,7.0,South,13.8,-,N/A,,Clear,170,2013-01-29 05:15:00
11:35 PM,59.9,56.5,88,29.95,10.0,SSE,15.0,21.9,N/A,,Mostly Cloudy,160,2013-01-29 05:35:00
11:55 PM,60.8,56.8,87,29.95,10.0,South,12.7,19.6,N/A,,Scattered Clouds,180,2013-01-29 05:55:00